When you browse on this site, cookies collect data to enhance your experience and personalize the content and advertising you see.
Visit our Privacy Policy to learn more. By continuing to use the site, you agree to this use of cookies and data.
  • In United Kingdom
  • List of Countries
  • For 7 days
  • Water Temperature
  • Weather Map
  • Weather Widgets
  • user-avatar
    Login

    Hourly Weather Nove-Misto

    Today, 16 October, Wednesday

    Time Temperature Precipitation Wind Pressure Humidity
    00:00 +14°C° 0 mm 2 mps 743 mmHg 64%
    01:00 +14°C° 0 mm 2 mps 743 mmHg 63%
    02:00 +13°C° 0 mm 2 mps 743 mmHg 62%
    03:00 +13°C° 0 mm 2 mps 743 mmHg 62%
    04:00 +12°C° 0 mm 2 mps 742 mmHg 63%
    05:00 +11°C° 0 mm 3 mps 742 mmHg 64%
    06:00 +11°C° 0 mm 3 mps 742 mmHg 61%
    07:00 +12°C° 0 mm 3 mps 742 mmHg 59%
    08:00 +13°C° 0 mm 3 mps 743 mmHg 57%
    09:00 +15°C° 0 mm 4 mps 743 mmHg 50%
    10:00 +18°C° 0 mm 4 mps 743 mmHg 44%
    11:00 +20°C° 0 mm 4 mps 743 mmHg 38%
    12:00 +20°C° 0 mm 4 mps 742 mmHg 36%
    13:00 +21°C° 0 mm 4 mps 742 mmHg 34%
    14:00 +22°C° 0 mm 4 mps 742 mmHg 31%
    15:00 +21°C° 0 mm 3 mps 742 mmHg 35%
    16:00 +19°C° 0 mm 3 mps 741 mmHg 38%
    17:00 +18°C° 0 mm 3 mps 741 mmHg 41%
    18:00 +17°C° 0 mm 3 mps 741 mmHg 42%
    19:00 +16°C° 0 mm 3 mps 741 mmHg 43%
    20:00 +16°C° 0 mm 3 mps 742 mmHg 44%
    21:00 +14°C° 0 mm 3 mps 742 mmHg 46%
    22:00 +14°C° 0 mm 3 mps 742 mmHg 47%
    23:00 +13°C° 0 mm 3 mps 742 mmHg 49%

    Tomorrow, 17 October, Thursday

    Time Temperature Precipitation Wind Pressure Humidity
    00:00 +13°C° 0 mm 3 mps 742 mmHg 51%
    01:00 +13°C° 0 mm 2 mps 742 mmHg 53%
    02:00 +13°C° 0 mm 2 mps 742 mmHg 55%
    03:00 +12°C° 0 mm 2 mps 742 mmHg 57%
    04:00 +12°C° 0 mm 2 mps 742 mmHg 59%
    05:00 +12°C° 0 mm 2 mps 741 mmHg 61%
    06:00 +12°C° 0 mm 2 mps 742 mmHg 61%
    07:00 +13°C° 0 mm 2 mps 742 mmHg 60%
    08:00 +14°C° 0 mm 2 mps 742 mmHg 59%
    09:00 +16°C° 0 mm 2 mps 742 mmHg 53%
    10:00 +18°C° 0 mm 2 mps 742 mmHg 48%
    11:00 +19°C° 0 mm 2 mps 743 mmHg 42%
    12:00 +20°C° 0 mm 2 mps 742 mmHg 39%
    13:00 +21°C° 0 mm 2 mps 742 mmHg 37%
    14:00 +23°C° 0 mm 2 mps 742 mmHg 34%
    15:00 +22°C° 0 mm 1 mps 742 mmHg 38%
    16:00 +20°C° 0 mm 1 mps 741 mmHg 42%
    17:00 +19°C° 0 mm 1 mps 741 mmHg 46%
    18:00 +16°C° 0 mm 0 mps 741 mmHg 48%
    19:00 +15°C° 0 mm 0 mps 742 mmHg 50%
    20:00 +15°C° 0 mm 0 mps 742 mmHg 52%
    21:00 +14°C° 0 mm 0 mps 742 mmHg 54%
    22:00 +15°C° 0 mm 1 mps 742 mmHg 56%
    23:00 +14°C° 0 mm 1 mps 742 mmHg 58%

    Day after tomorrow, 18 October, Friday

    Time Temperature Precipitation Wind Pressure Humidity
    00:00 +14°C° 0 mm 1 mps 742 mmHg 61%
    01:00 +13°C° 0 mm 1 mps 742 mmHg 64%
    02:00 +13°C° 0 mm 2 mps 742 mmHg 67%
    03:00 +12°C° 0 mm 2 mps 742 mmHg 71%
    04:00 +12°C° 0 mm 2 mps 742 mmHg 75%
    05:00 +12°C° 0 mm 2 mps 742 mmHg 78%
    06:00 +12°C° 0 mm 2 mps 742 mmHg 78%
    07:00 +13°C° 0 mm 2 mps 742 mmHg 77%
    08:00 +13°C° 0 mm 2 mps 743 mmHg 76%
    09:00 +15°C° 0 mm 2 mps 743 mmHg 68%
    10:00 +17°C° 0 mm 2 mps 743 mmHg 60%
    11:00 +19°C° 0 mm 2 mps 743 mmHg 53%
    12:00 +20°C° 0 mm 2 mps 743 mmHg 50%
    13:00 +21°C° 0 mm 2 mps 743 mmHg 47%
    14:00 +22°C° 0 mm 1 mps 742 mmHg 45%
    15:00 +21°C° 0 mm 1 mps 742 mmHg 48%
    16:00 +20°C° 0 mm 1 mps 742 mmHg 52%
    17:00 +19°C° 0 mm 1 mps 742 mmHg 56%
    18:00 +18°C° 0 mm 1 mps 742 mmHg 59%
    19:00 +16°C° 0 mm 1 mps 742 mmHg 62%
    20:00 +15°C° 0 mm 2 mps 742 mmHg 65%
    21:00 +15°C° 0 mm 2 mps 742 mmHg 68%
    22:00 +14°C° 0 mm 2 mps 743 mmHg 71%
    23:00 +14°C° 0 mm 2 mps 743 mmHg 74%

    19 October, Saturday

    Time Temperature Precipitation Wind Pressure Humidity
    00:00 +13°C° 0 mm 2 mps 743 mmHg 75%
    01:00 +13°C° 0 mm 2 mps 742 mmHg 76%
    02:00 +13°C° 0 mm 2 mps 742 mmHg 77%
    03:00 +12°C° 0 mm 2 mps 743 mmHg 78%
    04:00 +12°C° 0 mm 2 mps 743 mmHg 78%
    05:00 +12°C° 0 mm 2 mps 743 mmHg 78%
    06:00 +12°C° 0 mm 2 mps 743 mmHg 75%
    07:00 +13°C° 0 mm 2 mps 743 mmHg 72%
    08:00 +13°C° 0 mm 2 mps 743 mmHg 69%
    09:00 +16°C° 0 mm 2 mps 743 mmHg 61%
    10:00 +18°C° 0 mm 2 mps 744 mmHg 52%
    11:00 +20°C° 0 mm 2 mps 744 mmHg 44%
    12:00 +20°C° 0 mm 3 mps 743 mmHg 41%
    13:00 +21°C° 0 mm 3 mps 743 mmHg 39%
    14:00 +22°C° 0 mm 3 mps 743 mmHg 36%
    15:00 +21°C° 0 mm 2 mps 743 mmHg 40%
    16:00 +19°C° 0 mm 2 mps 743 mmHg 44%
    17:00 +18°C° 0 mm 2 mps 743 mmHg 48%
    18:00 +17°C° 0 mm 2 mps 743 mmHg 50%
    19:00 +17°C° 0 mm 2 mps 743 mmHg 52%
    20:00 +16°C° 0 mm 2 mps 743 mmHg 54%
    21:00 +15°C° 0 mm 2 mps 743 mmHg 56%
    22:00 +15°C° 0 mm 2 mps 743 mmHg 57%
    23:00 +14°C° 0 mm 2 mps 743 mmHg 59%

    20 October, Sunday

    Time Temperature Precipitation Wind Pressure Humidity
    00:00 +13°C° 0 mm 3 mps 743 mmHg 60%
    01:00 +12°C° 0 mm 3 mps 744 mmHg 62%
    02:00 +12°C° 0 mm 3 mps 744 mmHg 63%
    03:00 +12°C° 0 mm 3 mps 744 mmHg 66%
    04:00 +11°C° 0 mm 3 mps 744 mmHg 68%
    05:00 +11°C° 0 mm 3 mps 744 mmHg 70%
    06:00 +11°C° 0 mm 3 mps 744 mmHg 68%
    07:00 +12°C° 0 mm 3 mps 744 mmHg 67%
    08:00 +13°C° 0 mm 3 mps 744 mmHg 66%
    09:00 +16°C° 0 mm 3 mps 745 mmHg 59%
    10:00 +18°C° 0 mm 3 mps 745 mmHg 52%
    11:00 +20°C° 0 mm 4 mps 745 mmHg 46%
    12:00 +20°C° 0 mm 4 mps 745 mmHg 43%
    13:00 +21°C° 0 mm 4 mps 745 mmHg 40%
    14:00 +22°C° 0 mm 4 mps 745 mmHg 37%
    15:00 +21°C° 0 mm 3 mps 744 mmHg 41%
    16:00 +19°C° 0 mm 3 mps 744 mmHg 44%
    17:00 +18°C° 0 mm 2 mps 744 mmHg 47%
    18:00 +17°C° 0 mm 2 mps 744 mmHg 49%
    19:00 +16°C° 0 mm 2 mps 745 mmHg 51%
    20:00 +16°C° 0 mm 2 mps 745 mmHg 52%
    21:00 +15°C° 0 mm 2 mps 745 mmHg 54%
    22:00 +15°C° 0 mm 2 mps 745 mmHg 55%
    23:00 +14°C° 0 mm 2 mps 745 mmHg 56%

    21 October, Monday

    Time Temperature Precipitation Wind Pressure Humidity
    00:00 +14°C° 0 mm 2 mps 745 mmHg 58%
    01:00 +13°C° 0 mm 2 mps 746 mmHg 60%
    02:00 +13°C° 0 mm 2 mps 746 mmHg 62%
    03:00 +12°C° 0 mm 2 mps 746 mmHg 63%
    04:00 +12°C° 0 mm 2 mps 746 mmHg 65%
    05:00 +12°C° 0 mm 2 mps 746 mmHg 67%
    06:00 +12°C° 0 mm 2 mps 746 mmHg 66%
    07:00 +13°C° 0 mm 2 mps 746 mmHg 65%
    08:00 +13°C° 0 mm 2 mps 746 mmHg 64%
    09:00 +15°C° 0 mm 2 mps 746 mmHg 58%
    10:00 +17°C° 0 mm 3 mps 747 mmHg 52%
    11:00 +19°C° 0 mm 3 mps 747 mmHg 45%
    12:00 +20°C° 0 mm 3 mps 747 mmHg 43%
    13:00 +21°C° 0 mm 3 mps 746 mmHg 40%
    14:00 +22°C° 0 mm 3 mps 746 mmHg 37%
    15:00 +20°C° 0 mm 3 mps 746 mmHg 41%
    16:00 +19°C° 0 mm 2 mps 746 mmHg 45%
    17:00 +17°C° 0 mm 2 mps 745 mmHg 49%
    18:00 +17°C° 0 mm 2 mps 745 mmHg 50%
    19:00 +16°C° 0 mm 1 mps 746 mmHg 52%
    20:00 +15°C° 0 mm 1 mps 746 mmHg 54%
    21:00 +15°C° 0 mm 2 mps 746 mmHg 56%
    22:00 +14°C° 0 mm 2 mps 745 mmHg 57%
    23:00 +14°C° 0 mm 2 mps 745 mmHg 59%
    Show more